Content
SEND FEEDBACK

Daily
Averages
Monthly
Summary
United Kingdom

FELIXSTOWE, ENGLAND


Home > Europe > United Kingdom > England
Elevation: 10 feet     Latitude: 52 00N     Longitude: 001 18E

WEATHER
 
SELECT A DAY
Number of Records: 64,076;   Date Range: 8/10/96 - 7/29/14
 
SHARE

PRINT THIS DATA

[ ← Previous Day ]
WEATHER ALMANAC - NOVEMBER 16, 2013
[ Next Day → ]
[ °C ]   °F
Weather ElementAverageHighLow
Temperature40.6 °F46.4 °F (12:50 pm)32 °F (5:50 am)
Dewpoint39.3 °F44.6 °F (5:50 pm)32 °F (1:50 am)
Humidity94.3 %100 % (12:50 am)85 % (12:00 pm)
Barometer30.43 in30.50 in (3:00 am)30.36 in (8:50 pm)
Wind Speed6 mph10.4 mph (11:50 am)
Weather ElementAverage
Visibility6 mi
Wind DirectionWSW (241.3 °)

Weather ElementTotal
Precipitation---
Heating Degree Days25.8 (Base 65)
Averaged from 31 records on November 16, 2013
WEATHER CONDITIONS BREAKOUT
WIND DIRECTION BREAKOUT
WEATHER BY HOUR - NOVEMBER 16, 2013
[ °C ]   °F
Local TimeTemperatureDewpointHumidityBarometerVisibilityWind DirectionWind SpeedGust SpeedPrecipitationEventsConditions
12:50 AM33.8 °F33.8 °F100 %30.48 in6.2 miWSW (250°)5.8 mph
1:50 AM35.6 °F32.0 °F87 %30.48 in6.2 miSW (230°)4.6 mph
2:50 AM33.8 °F32.0 °F93 %30.48 in6.2 miWSW (240°)5.8 mph
3:00 AM34.0 °F32.0 °F88 %30.50 in11.0 miWSW (240°)5.8 mph
3:50 AM33.8 °F32.0 °F93 %30.45 in6.2 miWest (260°)6.9 mph
4:50 AM33.8 °F32.0 °F93 %30.45 in6.2 miSW (230°)5.8 mph
5:50 AM32.0 °F32.0 °F100 %30.45 in6.2 miWSW (240°)6.9 mph
6:00 AM33.0 °F32.0 °F92 %30.47 in7.0 miWSW (240°)6.9 mph
6:50 AM33.8 °F33.8 °F100 %30.45 in5.6 miWSW (240°)6.9 mphScattered Clouds
7:50 AM37.4 °F35.6 °F93 %30.45 in6.2 miSW (230°)5.8 mphOvercast
8:50 AM39.2 °F39.2 °F100 %30.45 in6.2 miWSW (240°)6.9 mphOvercast
9:00 AM40.0 °F38.0 °F91 %30.49 in9.0 miWSW (240°)6.9 mphOvercast
9:50 AM41.0 °F41.0 °F100 %30.48 in6.2 miSW (230°)5.8 mphOvercast
10:50 AM42.8 °F41.0 °F93 %30.45 in6.2 miWSW (250°)5.8 mphOvercast
11:50 AM44.6 °F42.8 °F93 %30.42 in6.2 miWSW (250°)10.4 mphOvercast
12:00 PM45.0 °F42.0 °F85 %30.45 in16.0 miWSW (250°)10.4 mphOvercast
12:50 PM46.4 °F42.8 °F87 %30.42 in6.2 miWSW (240°)5.8 mphOvercast
1:50 PM46.4 °F42.8 °F87 %30.42 in6.2 miWest (260°)6.9 mphOvercast
2:50 PM44.6 °F42.8 °F93 %30.42 in6.2 miWSW (240°)8.1 mphOvercast
3:00 PM45.0 °F43.0 °F88 %30.43 in11.0 miWSW (240°)8.1 mphOvercast
3:50 PM44.6 °F42.8 °F93 %30.39 in5.6 miWSW (250°)5.8 mphLight Drizzle
4:50 PM44.6 °F42.8 °F93 %30.39 in1.9 miWSW (250°)4.6 mphMostly Cloudy
5:50 PM44.6 °F44.6 °F100 %30.39 in1.7 miSW (230°)4.6 mphOvercast
6:00 PM44.0 °F44.0 °F98 %30.42 in2.0 miSW (230°)4.6 mphRainDrizzle
6:50 PM44.6 °F44.6 °F100 %30.39 in1.4 miWSW (240°)4.6 mphMostly Cloudy
7:50 PM44.6 °F42.8 °F93 %30.39 in3.1 miSW (230°)4.6 mphMostly Cloudy
8:50 PM42.8 °F42.8 °F100 %30.36 inWSW (240°)4.6 mphOvercast
9:00 PM44.0 °F43.0 °F96 %30.39 in3.0 miWSW (240°)4.6 mphMist
9:50 PM42.8 °F42.8 °F100 %30.36 in3.7 miWest (260°)4.6 mphOvercast
10:50 PM42.8 °F42.8 °F100 %30.36 in3.7 miWSW (240°)3.5 mphOvercast
11:50 PM44.6 °F42.8 °F93 %30.36 in6.2 miSW (230°)3.5 mphOvercast
Hourly data recorded from EGUW, located miles away from Felixstowe, England







STORIES FROM OUR PARTNERS